Location: Banska Bystrica
(48.7333°N, 19.1500°E)
Time: 18:04:15
(UTC+02:00)

ISS - Visible Passes

Search period start: 20 September 2018 00:00
Search period end: 30 September 2018 00:00
Orbit: 403 x 408 km, 51.6° (Epoch: 20 September)

Date Brightness Start Highest point End Pass type
(mag) Time Alt. Az. Time Alt. Az. Time Alt. Az.
22 Sep -2.2 20:27:09 10° SSW 20:28:50 23° S 20:28:50 23° S visible
23 Sep -2.3 19:35:56 10° S 19:38:24 20° SE 19:39:35 17° ESE visible
23 Sep -1.4 21:11:16 10° WSW 21:12:18 19° WSW 21:12:18 19° WSW visible
24 Sep -3.8 20:19:28 10° SW 20:22:42 59° SSE 20:22:51 58° SE visible
25 Sep -3.1 19:27:48 10° SW 19:30:54 37° SSE 19:33:16 15° E visible
25 Sep -2.0 21:04:02 10° W 21:05:57 31° W 21:05:57 31° W visible
26 Sep -3.8 20:12:04 10° WSW 20:15:22 82° NNW 20:16:13 47° ENE visible
26 Sep -0.3 21:48:53 10° WNW 21:48:54 10° WNW 21:48:54 10° WNW visible
27 Sep -3.8 19:20:10 10° WSW 19:23:27 70° SSE 19:26:24 12° ENE visible
27 Sep -2.2 20:56:51 10° W 20:59:04 35° WNW 20:59:04 35° WNW visible
28 Sep -3.4 20:04:48 10° W 20:08:04 58° NNW 20:09:10 35° NE visible
28 Sep -0.4 21:41:36 10° WNW 21:41:51 12° WNW 21:41:51 12° WNW visible
29 Sep -3.7 19:12:46 10° WSW 19:16:04 73° NNW 19:19:13 11° ENE visible
29 Sep -2.3 20:49:36 10° WNW 20:51:53 36° NW 20:51:53 36° NW visible
